Birmingham-Shuttlesworth International Airport Airport (BHM)

 

Airport Diagram
Current Weather/Forecast (VFR Conditions)
METAR KBHM 131153Z 00000KT 10SM SCT250 21/17 A3008 RMK AO2 SLP178 7//// T02060172 10244 20194 53007
TAF KBHM 131138Z 1312/1412 VRB03KT P6SM SKC

All Charts
General
Chart Name Download
AIRPORT DIAGRAM
TAKEOFF MINIMUMS
ALTERNATE MINIMUMS
LAHSO

Departures
Chart Name Download
BIRMINGHAM EIGHT
BIRMINGHAM EIGHT, CONT.1

Approaches
Chart Name Download
ILS OR LOC RWY 06
ILS OR LOC RWY 24
ILS RWY 06 (CAT II)
ILS RWY 24 (SA CAT II)
RNAV (RNP) Z RWY 06
RNAV (RNP) Z RWY 24
RNAV (GPS) RWY 18
RNAV (GPS) RWY 36
RNAV (GPS) Y RWY 06
RNAV (GPS) Y RWY 24
LOC RWY 18


Inbound Traffic (Arrivals)

No inbound traffic.


Outbound Traffic (Departures)

No outbound traffic.